Yellow Mule RAWS (NWS)

Elevation
9200ft
Aggregated by Synoptic Data
Date/Time Wind Direction Wind Speed knots Wind Gust knots RH % Accumulated Precip Inches Air Temp Fahrenheit
2024-02-29 08:04 SSE 8 12 88 0.28 17
2024-02-29 07:04 SSE 7 12 91 0.28 15
2024-02-29 06:04 SE 8 23 92 0.28 15
2024-02-29 05:04 SSE 12 20 92 0.28 17
2024-02-29 04:04 SSE 10 19 92 0.28 16
2024-02-29 03:04 S 10 14 91 0.28 14
2024-02-29 02:04 SSE 8 12 91 0.28 14
2024-02-29 01:04 SSE 7 11 91 0.28 13
2024-02-29 00:04 SE 6 13 91 0.28 13
2024-02-28 23:04 SSE 10 14 90 0.28 13
2024-02-28 22:04 SSE 10 19 91 0.28 14
2024-02-28 21:04 S 12 18 90 0.28 12
2024-02-28 20:04 S 11 17 91 0.28 13
2024-02-28 19:04 S 9 16 92 0.28 12
2024-02-28 18:04 S 10 18 89 0.28 14
2024-02-28 17:04 SSE 13 23 87 0.28 16
2024-02-28 16:04 SSE 11 27 83 0.28 21
2024-02-28 15:04 SSE 14 22 84 0.28 19
2024-02-28 14:04 SSE 13 21 84 0.28 19
2024-02-28 13:04 SSE 13 22 83 0.28 18
2024-02-28 12:04 SE 9 18 82 0.28 18
2024-02-28 11:04 S 13 16 80 0.28 15
2024-02-28 10:04 S 8 13 81 0.28 10
2024-02-28 09:04 S 10 13 82 0.28 7
2024-02-28 08:04 S 12 16 84 0.28 4
2024-02-28 07:04 S 10 20 83 0.28 7
2024-02-28 06:04 SSW 17 25 82 0.28 9
2024-02-28 05:04 SSW 12 28 82 0.28 7
2024-02-28 04:04 SSW 20 28 83 0.28 6
2024-02-28 03:04 S 11 19 80 0.28 3
2024-02-28 02:04 S 15 24 79 0.28 3
2024-02-28 01:04 S 11 29 78 0.28 2
2024-02-28 00:04 SSW 15 28 79 0.28 2
2024-02-27 23:04 SSW 18 31 80 0.28 1
2024-02-27 22:04 SSW 22 30 81 0.28 2
2024-02-27 21:04 SSW 19 29 81 0.28 1
2024-02-27 20:04 SSW 19 32 81 0.28 1
2024-02-27 19:04 SSW 17 26 80 0.28 1
2024-02-27 18:04 SSW 11 26 76 0.28 1
2024-02-27 17:04 SW 15 23 77 0.28 2
2024-02-27 16:04 SSW 14 21 79 0.28 4
2024-02-27 15:04 SW 15 22 79 0.28 3
2024-02-27 14:04 SW 12 23 78 0.28 4
2024-02-27 13:04 SW 10 17 79 0.28 4
2024-02-27 12:04 SW 8 16 77 0.28 5
2024-02-27 11:04 SSW 9 14 75 0.28 6
2024-02-27 10:04 SW 9 14 78 0.28 2
2024-02-27 09:04 WSW 6 13 77 0.28 5
2024-02-27 08:04 SW 10 14 80 0.28 1